KB1DML Cambridge MA US current weather conditions

sailwx.info

Wind from 292 at 3 knots gusting 6

Air temperature -2.2° C
Dewpoint -5.5° C

Last reported at 2019-Dec-07 09:05 UTC.
Time now 2019-Dec-07 10:08 UTC

Location: N 42°22' W 071°06'.
View on Google Maps.

See reports from other nearby stations

  
Tides and Currents Weather Stations Pressure Air Temp Water Temp Dewpoint Dewpoint Depression Visibility Wind Speed Wind Dir Waves Ship Positions
date/time (UTC)wind fromknots sea level pressurealtimeterstation pressurevisibilityair tempwater tempwave heightnotes
2019-Dec-07 09:05 292 3 gusting 6 -2.2
2019-Dec-07 09:00 315 4 gusting 10 -2.2
2019-Dec-07 08:55 315 5 gusting 12 -2.2
2019-Dec-07 08:50 315 4 gusting 9 -2.2
2019-Dec-07 08:45 315 4 gusting 10 -2.2
2019-Dec-07 08:40 315 6 gusting 13 -2.2
2019-Dec-07 08:35 315 4 gusting 9 -2.2
2019-Dec-07 08:30 315 5 gusting 10 -1.7
2019-Dec-07 08:25 315 5 gusting 9 -1.7
2019-Dec-07 08:20 292 3 gusting 8 -1.7
2019-Dec-07 08:15 315 3 gusting 7 -1.7
2019-Dec-07 08:10 315 4 gusting 10 -1.7
2019-Dec-07 08:05 315 3 gusting 7 -1.7
2019-Dec-07 08:00 315 3 gusting 6 -1.7
2019-Dec-07 07:55 315 2 gusting 7 -1.7
2019-Dec-07 07:50 -1.1
2019-Dec-07 07:45 292 2 gusting 5 -1.1
2019-Dec-07 07:40 292 2 gusting 6 -1.7
2019-Dec-07 07:35 315 2 gusting 6 -1.7
2019-Dec-07 07:30 292 2 gusting 6 -1.7
2019-Dec-07 07:25 292 2 gusting 5 -1.7
2019-Dec-07 07:20 292 2 gusting 6 -1.7
2019-Dec-07 07:15 292 2 gusting 6 -1.7
2019-Dec-07 07:10 292 2 gusting 6 -1.7
2019-Dec-07 07:05 292 2 gusting 6 -1.7
2019-Dec-07 07:00 292 2 gusting 6 -1.7
2019-Dec-07 06:55 292 2 gusting 6 -1.7
2019-Dec-07 06:50 292 2 gusting 6 -1.7
2019-Dec-07 06:45 292 2 gusting 6 -1.1
2019-Dec-07 06:40 292 1 gusting 6 -1.1
2019-Dec-07 06:35 292 3 gusting 7 -1.1
2019-Dec-07 06:30 292 2 gusting 6 -1.1
2019-Dec-07 06:25 292 3 gusting 7 -1.1
2019-Dec-07 06:20 292 2 gusting 6 -1.1
2019-Dec-07 06:15 292 2 gusting 6 -1.1
2019-Dec-07 06:10 270 3 gusting 9 -1.1
2019-Dec-07 06:05 292 4 gusting 10 -1.1
2019-Dec-07 06:00 292 2 gusting 6 -1.1
2019-Dec-07 05:55 292 2 gusting 7 -1.1
2019-Dec-07 05:50 292 2 gusting 7 -1.1
2019-Dec-07 05:45 292 3 gusting 8 -1.1
2019-Dec-07 05:40 292 3 gusting 9 -1.1
2019-Dec-07 05:35 292 4 gusting 9 -1.1
2019-Dec-07 05:30 292 3 gusting 6 -1.1
2019-Dec-07 05:25 292 3 gusting 7 -1.1
2019-Dec-07 05:20 292 4 gusting 9 -1.1
2019-Dec-07 05:15 292 4 gusting 9 -1.1
2019-Dec-07 05:10 292 4 gusting 11 -1.1
2019-Dec-07 05:05 292 4 gusting 9 -1.1
2019-Dec-07 05:00 292 4 gusting 12 -1.1
2019-Dec-07 04:55 315 4 gusting 9 -1.1
2019-Dec-07 04:50 292 5 gusting 11 -1.1
2019-Dec-07 04:45 292 5 gusting 12 -1.1
2019-Dec-07 04:40 315 6 gusting 10 -1.1
2019-Dec-07 04:35 292 4 gusting 13 -1.1
2019-Dec-07 04:30 292 5 gusting 11 -1.1
2019-Dec-07 04:25 292 5 gusting 12 -0.6
2019-Dec-07 04:20 292 6 gusting 14 -0.6
2019-Dec-07 04:15 292 4 gusting 12 -0.6
2019-Dec-07 04:10 315 3 gusting 13 -0.6
2019-Dec-07 04:05 315 4 gusting 10 -0.6
2019-Dec-07 04:00 315 4 gusting 9 -0.6
2019-Dec-07 03:55 315 4 gusting 11 -0.6
2019-Dec-07 03:50 315 6 gusting 11 -0.6
2019-Dec-07 03:45 315 4 gusting 10 -0.6
2019-Dec-07 03:40 315 4 gusting 10 -0.6
2019-Dec-07 03:35 292 4 gusting 10 -0.6
2019-Dec-07 03:30 292 3 gusting 9 -0.6
2019-Dec-07 03:25 292 4 gusting 11 -0.0
2019-Dec-07 03:20 315 2 gusting 3 -0.0
2019-Dec-07 03:15 292 2 gusting 7 -0.0
2019-Dec-07 03:10 292 2 gusting 8 -0.0
2019-Dec-07 03:05 270 3 gusting 7 -0.0
2019-Dec-07 03:00 292 3 gusting 7 -0.0
2019-Dec-07 02:55 292 4 gusting 7 -0.0
2019-Dec-07 02:50 315 2 gusting 10 -0.0
2019-Dec-07 02:45 315 5 gusting 10 -0.0
2019-Dec-07 02:40 315 3 gusting 6 -0.0
2019-Dec-07 02:35 315 5 gusting 8 -0.0
2019-Dec-07 02:30 315 5 gusting 10 0.6
2019-Dec-07 02:25 292 3 gusting 6 0.6
2019-Dec-07 02:20 292 2 gusting 5 0.6
2019-Dec-07 02:15 292 3 gusting 6 0.6
2019-Dec-07 02:10 315 2 gusting 5 0.6
2019-Dec-07 02:05 315 1 gusting 4 0.6
2019-Dec-07 02:00 315 1 gusting 4 0.6
2019-Dec-07 01:55 315 2 gusting 4 0.6
2019-Dec-07 01:50 292 0 gusting 3 0.6
2019-Dec-07 01:45 315 1 gusting 2 0.6
2019-Dec-07 01:40 315 1 gusting 3 1.1
2019-Dec-07 01:35 315 1 gusting 3 1.1
2019-Dec-07 01:30 292 1 gusting 3 1.1
2019-Dec-07 01:25 292 1 gusting 3 1.1
2019-Dec-07 01:20 292 1 gusting 4 1.1
2019-Dec-07 01:15 292 1 gusting 4 1.1
2019-Dec-07 01:10 292 0 gusting 3 1.1
2019-Dec-07 01:05 292 1 gusting 3 1.1
2019-Dec-07 01:00 292 0 gusting 2 1.1
2019-Dec-07 00:55 292 0 gusting 2 1.1
2019-Dec-07 00:50 270 1 gusting 3 1.1
2019-Dec-07 00:45 022 1 gusting 2 1.1
2019-Dec-07 00:40 022 0 gusting 1 1.1
2019-Dec-07 00:35 022 0 gusting 3 1.1
2019-Dec-07 00:30 045 0 gusting 3 1.1
2019-Dec-07 00:25 1.1
2019-Dec-07 00:20 1.1
2019-Dec-07 00:15 1.1
2019-Dec-07 00:10 1.1
2019-Dec-07 00:05 045 0 gusting 1 1.1
2019-Dec-07 00:00 045 0 gusting 1 1.1
2019-Dec-06 23:55 045 0 gusting 2 1.1
2019-Dec-06 23:50 045 0 gusting 1 1.1
2019-Dec-06 23:45 045 1 gusting 2 1.1
2019-Dec-06 23:40 045 0 gusting 1 1.1
2019-Dec-06 23:35 045 0 gusting 1 1.1
2019-Dec-06 23:30 045 0 gusting 1 1.1
2019-Dec-06 23:25 045 0 gusting 2 1.1
2019-Dec-06 23:20 045 2 gusting 3 1.1
2019-Dec-06 23:15 045 0 gusting 2 1.1
2019-Dec-06 23:10 045 0 gusting 1 1.1
2019-Dec-06 23:05 045 0 gusting 2 1.1
2019-Dec-06 23:00 1.1
2019-Dec-06 22:55 1.1
2019-Dec-06 22:50 1.1
2019-Dec-06 22:45 045 0 gusting 2 1.1
2019-Dec-06 22:40 045 0 gusting 2 1.1
2019-Dec-06 22:35 045 0 gusting 2 1.1
2019-Dec-06 22:30 067 1 gusting 2 1.1
2019-Dec-06 22:25 067 0 gusting 2 0.6
2019-Dec-06 22:20 067 0 gusting 2 0.6
2019-Dec-06 22:15 067 1 gusting 3 0.6
2019-Dec-06 22:10 112 0 gusting 3 0.6
2019-Dec-06 22:05 0.6
2019-Dec-06 22:00 112 0 gusting 3 0.6
2019-Dec-06 21:55 112 1 gusting 3 0.6
2019-Dec-06 21:50 112 1 gusting 3 0.6
2019-Dec-06 21:45 112 0 gusting 3 0.6
2019-Dec-06 21:40 0.6
2019-Dec-06 21:35 112 1 gusting 3 0.6
2019-Dec-06 21:30 112 1 gusting 4 0.6
2019-Dec-06 21:25 112 1 gusting 4 0.6
2019-Dec-06 21:20 112 0 gusting 3 0.6
2019-Dec-06 21:15 112 0 gusting 1 0.6
2019-Dec-06 21:10 0.6
2019-Dec-06 21:05 112 0 gusting 3 0.6
2019-Dec-06 21:00 112 0 gusting 3 0.6
2019-Dec-06 20:55 0.6
2019-Dec-06 20:50 112 0 gusting 1 0.6
2019-Dec-06 20:45 112 0 gusting 3 0.6
2019-Dec-06 20:40 112 2 gusting 4 0.6
2019-Dec-06 20:35 112 0 gusting 3 0.6
2019-Dec-06 20:30 112 2 gusting 4 1.1
2019-Dec-06 20:25 112 2 gusting 4 1.1
2019-Dec-06 20:20 112 0 gusting 3 1.1
2019-Dec-06 20:15 135 1 gusting 4 1.1
2019-Dec-06 20:10 135 1 gusting 3 1.1
2019-Dec-06 20:05 180 1 gusting 5 1.1
2019-Dec-06 20:00 180 2 gusting 5 1.1
2019-Dec-06 19:55 157 1 gusting 3 1.1
2019-Dec-06 19:50 180 0 gusting 2 1.1
2019-Dec-06 19:45 180 2 gusting 5 1.7
2019-Dec-06 19:40 180 1 gusting 5 1.7
2019-Dec-06 19:35 202 1 gusting 6 1.7
2019-Dec-06 19:30 202 3 gusting 7 1.7
2019-Dec-06 19:25 180 2 gusting 6 1.7
2019-Dec-06 19:20 180 2 gusting 6 1.7
2019-Dec-06 19:15 180 3 gusting 6 1.7
2019-Dec-06 19:10 180 2 gusting 6 1.7
2019-Dec-06 19:05 225 2 gusting 6 1.7
2019-Dec-06 19:00 180 2 gusting 5 1.7
2019-Dec-06 18:55 180 3 gusting 6 1.7
2019-Dec-06 18:50 157 1 gusting 6 1.7
2019-Dec-06 18:45 157 2 gusting 6 1.7
2019-Dec-06 18:40 112 2 gusting 6 1.7
2019-Dec-06 18:35 225 0 gusting 2 1.7
2019-Dec-06 18:30 157 3 gusting 6 1.7
2019-Dec-06 18:25 225 1 gusting 3 1.7
2019-Dec-06 18:20 225 1 gusting 3 1.7
2019-Dec-06 18:15 225 2 gusting 6 1.1
2019-Dec-06 18:10 225 1 gusting 4 1.1
2019-Dec-06 18:05 225 2 gusting 6 1.1
2019-Dec-06 18:00 225 2 gusting 6 1.1
2019-Dec-06 17:55 225 2 gusting 5 1.1
2019-Dec-06 17:50 225 3 gusting 6 1.1
2019-Dec-06 17:45 225 2 gusting 6 1.1
2019-Dec-06 17:40 225 1 gusting 5 1.1
2019-Dec-06 17:35 247 3 gusting 6 1.1
2019-Dec-06 17:30 225 3 gusting 7 1.1
2019-Dec-06 17:25 225 2 gusting 5 1.1
2019-Dec-06 17:20 247 4 gusting 8 1.1
2019-Dec-06 17:15 247 3 gusting 7 1.1
2019-Dec-06 17:10 225 3 gusting 11 1.1
2019-Dec-06 17:05 225 5 gusting 12 1.1
2019-Dec-06 17:00 202 2 gusting 6 1.1
2019-Dec-06 16:55 180 2 gusting 6 1.1
2019-Dec-06 16:50 180 1 gusting 6 1.1
2019-Dec-06 16:45 225 3 gusting 7 1.1
2019-Dec-06 16:40 225 3 gusting 6 1.1
2019-Dec-06 16:35 247 4 gusting 11 1.1
2019-Dec-06 16:30 225 1 gusting 8 1.1
2019-Dec-06 16:25 180 1 gusting 6 0.6
2019-Dec-06 16:20 225 1 gusting 5 0.6
2019-Dec-06 16:15 225 2 gusting 6 0.6
2019-Dec-06 16:10 225 3 gusting 6 0.6
2019-Dec-06 16:05 247 2 gusting 8 0.6
2019-Dec-06 16:00 247 2 gusting 4 0.6
2019-Dec-06 15:55 247 2 gusting 6 0.6
2019-Dec-06 15:50 225 3 gusting 9 0.6
2019-Dec-06 15:45 225 2 gusting 7 0.6
2019-Dec-06 15:40 225 2 gusting 7 0.6
2019-Dec-06 15:35 225 2 gusting 6 0.6
2019-Dec-06 15:30 292 2 gusting 6 -0.0
2019-Dec-06 15:25 225 4 gusting 5 -0.0
2019-Dec-06 15:20 202 2 gusting 5 -0.0
2019-Dec-06 15:15 157 2 gusting 7 -0.0
2019-Dec-06 15:10 225 2 gusting 4 -0.0
2019-Dec-06 15:05 225 0 gusting 3 -0.0
2019-Dec-06 15:00 225 1 gusting 4 -0.0
2019-Dec-06 14:55 225 2 gusting 6 -0.0
2019-Dec-06 14:50 202 1 gusting 5 -0.0
2019-Dec-06 14:45 225 2 gusting 5 -0.6
2019-Dec-06 14:40 225 2 gusting 5 -0.6
2019-Dec-06 14:35 225 2 gusting 5 -0.6
2019-Dec-06 14:30 180 2 gusting 4 -0.6
2019-Dec-06 14:25 225 2 gusting 5 -0.6
2019-Dec-06 14:20 180 1 gusting 5 -0.6
2019-Dec-06 14:15 157 1 gusting 4 -1.1
2019-Dec-06 14:10 202 1 gusting 5 -1.1
2019-Dec-06 14:05 225 1 gusting 5 -1.1
2019-Dec-06 14:00 225 1 gusting 4 -1.1
2019-Dec-06 13:55 225 1 gusting 3 -1.1
2019-Dec-06 13:50 225 2 gusting 4 -1.1
2019-Dec-06 13:45 225 0 gusting 2 -1.7
2019-Dec-06 13:40 225 2 gusting 6 -1.7
2019-Dec-06 13:35 225 3 gusting 6 -1.7
2019-Dec-06 13:30 225 1 gusting 4 -1.7
2019-Dec-06 13:25 225 1 gusting 5 -1.7
2019-Dec-06 13:20 225 2 gusting 5 -1.7
2019-Dec-06 13:15 225 2 gusting 6 -1.7
2019-Dec-06 13:10 225 2 gusting 5 -2.2
2019-Dec-06 13:05 157 1 gusting 6 -2.2
2019-Dec-06 13:00 225 2 gusting 6 -2.2
2019-Dec-06 12:55 225 2 gusting 6 -2.2
2019-Dec-06 12:50 180 1 gusting 4 -2.2
2019-Dec-06 12:45 225 1 gusting 4 -2.8
2019-Dec-06 12:40 202 1 gusting 4 -2.8
2019-Dec-06 12:35 225 1 gusting 4 -2.8
2019-Dec-06 12:30 225 0 gusting 2 -2.8
2019-Dec-06 12:25 225 0 gusting 3 -2.8
2019-Dec-06 12:20 225 1 gusting 2 -2.8
2019-Dec-06 12:15 225 1 gusting 3 -2.8
2019-Dec-06 12:10 180 0 gusting 3 -2.8
2019-Dec-06 12:05 225 1 gusting 2 -2.8
2019-Dec-06 12:00 225 0 gusting 3 -2.8
2019-Dec-06 11:55 225 0 gusting 2 -2.8
2019-Dec-06 11:50 225 0 gusting 1 -2.8
2019-Dec-06 11:45 225 0 gusting 4 -2.8
2019-Dec-06 11:40 225 1 gusting 2 -2.8
2019-Dec-06 11:35 247 1 gusting 3 -2.8
2019-Dec-06 11:30 247 1 gusting 4 -2.8
2019-Dec-06 11:25 247 0 gusting 2 -2.8
2019-Dec-06 11:20 247 0 gusting 2 -2.8
2019-Dec-06 11:15 247 1 gusting 2 -2.8
2019-Dec-06 11:10 247 0 gusting 2 -2.8
2019-Dec-06 11:05 247 1 gusting 3 -2.8
2019-Dec-06 11:00 225 1 gusting 6 -2.8
2019-Dec-06 10:55 225 2 gusting 6 -2.8
2019-Dec-06 10:50 247 1 gusting 5 -2.8
2019-Dec-06 10:45 225 1 gusting 5 -2.8
2019-Dec-06 10:40 247 1 gusting 4 -2.8
2019-Dec-06 10:35 247 2 gusting 5 -2.8
2019-Dec-06 10:30 247 2 gusting 5 -2.8
2019-Dec-06 10:25 247 2 gusting 6 -2.8
2019-Dec-06 10:20 292 1 gusting 3 -2.8
2019-Dec-06 10:15 247 1 gusting 4 -2.8
2019-Dec-06 10:10 247 2 gusting 5 -2.8
2019-Dec-06 10:05 247 1 gusting 4 -2.8
2019-Dec-06 10:00 247 1 gusting 5 -2.8
2019-Dec-06 09:55 247 2 gusting 3 -2.8
2019-Dec-06 09:50 247 2 gusting 5 -2.2
2019-Dec-06 09:45 247 1 gusting 3 -2.2
2019-Dec-06 09:40 247 2 gusting 5 -2.2
2019-Dec-06 09:35 247 2 gusting 6 -2.2
2019-Dec-06 09:30 225 2 gusting 6 -2.2
2019-Dec-06 09:25 247 2 gusting 6 -2.2
2019-Dec-06 09:20 247 1 gusting 2 -2.2
2019-Dec-06 09:15 247 0 gusting 4 -2.2
2019-Dec-06 09:10 247 1 gusting 4 -2.2
2019-Dec-06 09:05 225 2 gusting 4 -2.2
2019-Dec-06 09:00 225 1 gusting 4 -2.2
2019-Dec-06 08:55 225 0 gusting 3 -2.2
2019-Dec-06 08:50 225 1 gusting 4 -2.2
2019-Dec-06 08:40 247 2 gusting 5 -2.2
2019-Dec-06 08:35 247 2 gusting 5 -2.2
2019-Dec-06 08:30 225 3 gusting 6 -2.2
2019-Dec-06 08:25 225 2 gusting 5 -2.2
2019-Dec-06 08:20 247 1 gusting 4 -2.2
2019-Dec-06 08:15 247 1 gusting 3 -2.2
2019-Dec-06 08:10 225 1 gusting 3 -2.2
2019-Dec-06 08:05 247 2 gusting 4 -2.2
2019-Dec-06 08:00 247 1 gusting 5 -2.2
2019-Dec-06 07:55 225 1 gusting 3 -2.2
2019-Dec-06 07:50 247 1 gusting 5 -2.2
2019-Dec-06 07:45 247 1 gusting 3 -2.2
2019-Dec-06 07:40 225 2 gusting 5 -2.2
2019-Dec-06 07:35 247 2 gusting 5 -2.2
2019-Dec-06 07:30 247 2 gusting 5 -1.7
2019-Dec-06 07:25 247 2 gusting 5 -2.2
2019-Dec-06 07:20 247 2 gusting 6 -1.7
2019-Dec-06 07:15 225 2 gusting 5 -1.7
2019-Dec-06 07:10 247 2 gusting 6 -1.7
2019-Dec-06 07:05 292 2 gusting 5 -1.7
2019-Dec-06 07:00 247 3 gusting 6 -1.7
2019-Dec-06 06:55 270 2 gusting 7 -1.7
2019-Dec-06 06:50 292 2 gusting 5 -1.7
2019-Dec-06 06:45 292 2 gusting 8 -1.7
2019-Dec-06 06:40 270 1 gusting 5 -1.7
2019-Dec-06 06:35 292 2 gusting 6 -1.7
2019-Dec-06 06:30 247 2 gusting 6 -1.7
2019-Dec-06 06:25 270 2 gusting 7 -1.7
2019-Dec-06 06:20 247 1 gusting 3 -1.7
2019-Dec-06 06:15 270 2 gusting 6 -1.7
2019-Dec-06 06:10 292 2 gusting 5 -1.7
2019-Dec-06 06:05 247 3 gusting 7 -1.7
2019-Dec-06 06:00 247 2 gusting 6 -1.7
2019-Dec-06 05:55 292 3 gusting 8 -1.7
2019-Dec-06 05:50 292 3 gusting 8 -1.7
2019-Dec-06 05:45 292 4 gusting 10 -1.1
2019-Dec-06 05:40 292 3 gusting 9 -1.1
2019-Dec-06 05:35 292 4 gusting 9 -1.1
2019-Dec-06 05:30 292 6 gusting 13 -1.1
2019-Dec-06 05:25 270 3 gusting 7 -1.1
2019-Dec-06 05:20 292 5 gusting 11 -1.1
2019-Dec-06 05:15 292 5 gusting 10 -1.1
2019-Dec-06 05:10 292 6 gusting 14 -1.1
2019-Dec-06 05:05 292 6 gusting 17 -1.1
2019-Dec-06 05:00 292 6 gusting 13 -1.1
2019-Dec-06 04:55 270 3 gusting 9 -1.1
2019-Dec-06 04:50 292 5 gusting 13 -1.1
2019-Dec-06 04:45 292 5 gusting 12 -1.1
2019-Dec-06 04:40 270 6 gusting 12 -0.6
2019-Dec-06 04:35 292 4 gusting 13 -0.6
2019-Dec-06 04:30 270 3 gusting 8 -0.6
2019-Dec-06 04:25 292 5 gusting 13 -0.6
2019-Dec-06 04:20 292 5 gusting 12 -0.6
2019-Dec-06 04:15 292 5 gusting 10 -0.6
2019-Dec-06 04:10 292 5 gusting 13 -0.6
2019-Dec-06 04:05 292 5 gusting 14 -0.6
2019-Dec-06 04:00 292 4 gusting 11 -0.6
2019-Dec-06 03:55 292 4 gusting 9 -0.6
2019-Dec-06 03:50 292 4 gusting 10 -0.0
2019-Dec-06 03:45 247 4 gusting 14 -0.0
2019-Dec-06 03:40 292 5 gusting 10 -0.0
2019-Dec-06 03:35 270 4 gusting 10 -0.0
2019-Dec-06 03:30 315 3 gusting 9 -0.0
2019-Dec-06 03:25 270 3 gusting 9 -0.0
2019-Dec-06 03:20 270 2 gusting 10 -0.0
2019-Dec-06 03:15 270 3 gusting 10 -0.0
2019-Dec-06 03:10 270 3 gusting 8 -0.0
2019-Dec-06 03:05 292 3 gusting 7 -0.0
2019-Dec-06 03:00 292 3 gusting 8 0.6
2019-Dec-06 02:55 292 3 gusting 8 0.6
2019-Dec-06 02:50 292 3 gusting 7 0.6
2019-Dec-06 02:45 270 3 gusting 9 0.6
2019-Dec-06 02:40 270 4 gusting 7 0.6
2019-Dec-06 02:35 270 3 gusting 6 0.6
2019-Dec-06 02:30 247 4 gusting 8 0.6
2019-Dec-06 02:25 292 4 gusting 8 0.6
2019-Dec-06 02:20 247 4 gusting 6 1.1
2019-Dec-06 02:15 247 3 gusting 9 1.1
2019-Dec-06 02:10 270 1 gusting 5 1.1
2019-Dec-06 02:05 247 3 gusting 6 1.1
2019-Dec-06 02:00 270 2 gusting 5 1.1
2019-Dec-06 01:55 270 3 gusting 10 1.1
2019-Dec-06 01:50 270 2 gusting 10 1.1
2019-Dec-06 01:45 247 4 gusting 10 1.1
2019-Dec-06 01:40 270 2 gusting 6 1.1
2019-Dec-06 01:35 247 4 gusting 11 1.1
2019-Dec-06 01:30 225 2 gusting 4 1.1
2019-Dec-06 01:25 247 3 gusting 6 1.1
2019-Dec-06 01:20 247 3 gusting 7 1.7
2019-Dec-06 01:15 247 3 gusting 9 1.7
2019-Dec-06 01:10 292 3 gusting 7 1.7
2019-Dec-06 01:05 270 3 gusting 7 1.7
2019-Dec-06 01:00 247 3 gusting 7 1.7
2019-Dec-06 00:55 270 3 gusting 13 1.7
2019-Dec-06 00:50 270 4 gusting 8 1.7
2019-Dec-06 00:45 270 3 gusting 11 1.7
2019-Dec-06 00:40 270 3 gusting 7 1.7
2019-Dec-06 00:35 247 3 gusting 9 1.7
2019-Dec-06 00:30 270 3 gusting 9 1.7
2019-Dec-06 00:25 292 2 gusting 5 1.7
2019-Dec-06 00:20 292 3 gusting 6 1.7
2019-Dec-06 00:15 247 2 gusting 5 1.7
2019-Dec-06 00:10 292 3 gusting 12 1.7
2019-Dec-06 00:05 292 3 gusting 7 1.7
2019-Dec-06 00:00 270 3 gusting 9 2.2
2019-Dec-05 23:50 247 6 gusting 13 2.2
2019-Dec-05 23:45 247 4 gusting 9 2.2
2019-Dec-05 23:40 247 3 gusting 7 2.2
2019-Dec-05 23:35 270 4 gusting 8 2.2
2019-Dec-05 23:30 247 4 gusting 9 2.2
2019-Dec-05 23:25 247 2 gusting 9 2.8
2019-Dec-05 23:20 247 4 gusting 10 2.8
2019-Dec-05 23:15 247 3 gusting 6 2.8
2019-Dec-05 23:10 247 3 gusting 9 2.8
2019-Dec-05 23:05 225 2 gusting 6 2.8
2019-Dec-05 23:00 247 1 gusting 6 2.8
2019-Dec-05 22:55 247 2 gusting 6 2.8
2019-Dec-05 22:50 247 3 gusting 7 2.8
2019-Dec-05 22:45 270 2 gusting 6 2.8
2019-Dec-05 22:40 247 3 gusting 8 3.3
2019-Dec-05 22:35 247 4 gusting 12 3.3
2019-Dec-05 22:30 247 5 gusting 10 3.3
2019-Dec-05 22:25 247 5 gusting 14 3.3
2019-Dec-05 22:20 270 5 gusting 10 3.3
2019-Dec-05 22:15 225 5 gusting 9 3.3
2019-Dec-05 22:10 270 4 gusting 9 3.3
2019-Dec-05 22:05 247 4 gusting 10 3.3
2019-Dec-05 22:00 247 4 gusting 10 3.3
2019-Dec-05 21:55 270 6 gusting 13 3.3
2019-Dec-05 21:50 270 4 gusting 9 3.3
2019-Dec-05 21:45 247 4 gusting 8 3.9
2019-Dec-05 21:40 247 4 gusting 15 3.9
2019-Dec-05 21:35 292 3 gusting 6 3.9
2019-Dec-05 21:30 247 4 gusting 9 3.9
2019-Dec-05 21:25 292 3 gusting 8 3.9
2019-Dec-05 21:20 292 4 gusting 10 3.9
2019-Dec-05 21:15 247 3 gusting 9 3.9
2019-Dec-05 21:10 247 3 gusting 5 4.4
2019-Dec-05 21:05 247 5 gusting 9 4.4
2019-Dec-05 21:00 247 5 gusting 13 4.4
2019-Dec-05 20:55 247 3 gusting 7 4.4
2019-Dec-05 20:50 247 3 gusting 8 4.4
2019-Dec-05 20:45 292 3 gusting 6 4.4
2019-Dec-05 20:40 270 3 gusting 8 4.4
2019-Dec-05 20:35 247 4 gusting 10 4.4
2019-Dec-05 20:30 247 3 gusting 8 4.4
2019-Dec-05 20:25 292 3 gusting 6 4.4
2019-Dec-05 20:20 270 4 gusting 9 4.4
2019-Dec-05 20:15 270 3 gusting 8 4.4
2019-Dec-05 20:10 247 5 gusting 11 4.4
2019-Dec-05 20:05 247 5 gusting 12 4.4
2019-Dec-05 20:00 247 3 gusting 8 4.4
2019-Dec-05 19:55 247 3 gusting 9 4.4
2019-Dec-05 19:50 247 4 gusting 9 4.4
2019-Dec-05 19:45 247 4 gusting 8 5.0
2019-Dec-05 19:40 247 4 gusting 11 5.0
2019-Dec-05 19:35 247 5 gusting 11 5.0
2019-Dec-05 19:30 292 5 gusting 9 5.0
2019-Dec-05 19:25 292 5 gusting 10 5.0
2019-Dec-05 19:20 292 4 gusting 13 5.0
2019-Dec-05 19:15 247 5 gusting 12 5.0
2019-Dec-05 19:10 247 4 gusting 10 5.0
2019-Dec-05 19:05 247 5 gusting 13 5.0
2019-Dec-05 19:00 270 5 gusting 10 5.0
2019-Dec-05 18:55 270 5 gusting 10 5.0
2019-Dec-05 18:50 292 5 gusting 11 5.0
2019-Dec-05 18:45 247 6 gusting 15 5.6
2019-Dec-05 18:40 247 4 gusting 9 5.6
2019-Dec-05 18:35 247 3 gusting 9 5.6
2019-Dec-05 18:30 270 4 gusting 11 5.6
2019-Dec-05 18:25 292 3 gusting 8 5.6
2019-Dec-05 18:20 270 4 gusting 10 5.6
2019-Dec-05 18:15 292 2 gusting 8 6.1
2019-Dec-05 18:10 292 4 gusting 8 6.1
2019-Dec-05 18:05 270 4 gusting 11 6.1
2019-Dec-05 18:00 247 4 gusting 10 6.1
2019-Dec-05 17:55 247 5 gusting 10 5.6
2019-Dec-05 17:50 292 5 gusting 12 5.6
2019-Dec-05 17:45 247 5 gusting 14 5.6
2019-Dec-05 17:40 247 4 gusting 9 5.6
2019-Dec-05 17:35 247 4 gusting 14 5.6
2019-Dec-05 17:30 270 6 gusting 14 5.6
2019-Dec-05 17:25 270 5 gusting 16 5.6
2019-Dec-05 17:20 247 5 gusting 12 5.6
2019-Dec-05 17:15 292 5 gusting 12 5.6
2019-Dec-05 17:10 247 5 gusting 12 5.6
2019-Dec-05 17:05 292 4 gusting 9 5.6
2019-Dec-05 17:00 292 4 gusting 9 5.6
2019-Dec-05 16:55 247 3 gusting 6 5.6
2019-Dec-05 16:50 292 4 gusting 8 5.6
2019-Dec-05 16:45 247 2 gusting 6 5.6
2019-Dec-05 16:40 247 4 gusting 9 5.6
2019-Dec-05 16:35 247 4 gusting 8 5.6
2019-Dec-05 16:30 247 4 gusting 9 5.0
2019-Dec-05 16:25 247 4 gusting 7 5.6
2019-Dec-05 16:20 247 4 gusting 10 5.0
2019-Dec-05 16:15 247 4 gusting 8 5.0
2019-Dec-05 16:10 270 4 gusting 12 5.0
2019-Dec-05 16:05 247 4 gusting 9 5.0
2019-Dec-05 16:00 270 4 gusting 13 5.0
2019-Dec-05 15:55 247 2 gusting 6 5.0
2019-Dec-05 15:50 247 3 gusting 12 5.0
2019-Dec-05 15:45 270 4 gusting 8 4.4
2019-Dec-05 15:40 247 5 gusting 11 4.4
2019-Dec-05 15:35 247 2 gusting 8 4.4
2019-Dec-05 15:30 247 3 gusting 9 4.4
2019-Dec-05 15:25 270 3 gusting 7 4.4
2019-Dec-05 15:20 270 4 gusting 9 4.4
2019-Dec-05 15:15 292 5 gusting 11 4.4
2019-Dec-05 15:10 292 3 gusting 11 3.9
2019-Dec-05 15:05 292 4 gusting 7 3.9
2019-Dec-05 15:00 247 2 gusting 6 3.9
2019-Dec-05 14:55 292 3 gusting 10 3.9
2019-Dec-05 14:50 247 3 gusting 10 2.8
2019-Dec-05 14:45 247 2 gusting 6 2.8
2019-Dec-05 14:40 292 2 gusting 8 2.8
2019-Dec-05 14:35 292 3 gusting 8 2.2
2019-Dec-05 14:30 292 2 gusting 6 2.2
2019-Dec-05 14:25 292 1 gusting 6 2.2
2019-Dec-05 14:20 247 1 gusting 4 2.2
2019-Dec-05 14:15 247 3 gusting 6 1.7
2019-Dec-05 14:10 292 2 gusting 6 1.7
2019-Dec-05 14:05 247 1 gusting 5 1.7
2019-Dec-05 14:00 247 1 gusting 4 1.7
2019-Dec-05 13:55 247 2 gusting 5 1.1
2019-Dec-05 13:50 225 2 gusting 6 1.1
2019-Dec-05 13:45 225 1 gusting 4 1.1
2019-Dec-05 13:40 247 1 gusting 6 1.1
2019-Dec-05 13:35 247 0 gusting 2 1.1
2019-Dec-05 13:30 247 1 gusting 6 0.6
2019-Dec-05 13:25 247 3 gusting 6 0.6
2019-Dec-05 13:20 247 1 gusting 4 0.6
2019-Dec-05 13:15 247 1 gusting 3 0.6
2019-Dec-05 13:10 202 1 gusting 4 -0.0
2019-Dec-05 13:05 247 2 gusting 4 -0.0
2019-Dec-05 13:00 247 2 gusting 6 -0.0
2019-Dec-05 12:55 225 1 gusting 4 -0.0
2019-Dec-05 12:50 247 1 gusting 3 -0.0
2019-Dec-05 12:45 247 0 gusting 1 -0.0
2019-Dec-05 12:40 247 0 gusting 2 -0.0
2019-Dec-05 12:35 247 0 gusting 3 -0.0
2019-Dec-05 12:30 247 1 gusting 4 -0.6
2019-Dec-05 12:25 247 1 gusting 3 -0.6
2019-Dec-05 12:20 247 0 gusting 3 -0.6
2019-Dec-05 12:15 247 0 gusting 2 -0.6
2019-Dec-05 12:10 247 0 gusting 1 -0.6
2019-Dec-05 12:05 247 0 gusting 2 -0.6
2019-Dec-05 12:00 247 0 gusting 1 -0.0
2019-Dec-05 11:55 247 0 gusting 1 -0.0
2019-Dec-05 11:50 247 0 gusting 2 -0.0
2019-Dec-05 11:45 247 1 gusting 3 -0.0
2019-Dec-05 11:40 247 0 gusting 2 -0.0
2019-Dec-05 11:35 247 0 gusting 3 -0.0
2019-Dec-05 11:30 225 0 gusting 4 -0.0
2019-Dec-05 11:25 225 0 gusting 3 -0.0
2019-Dec-05 11:20 225 0 gusting 3 -0.0
2019-Dec-05 11:15 225 0 gusting 2 -0.0
2019-Dec-05 11:10 225 0 gusting 3 -0.0
2019-Dec-05 11:05 225 1 gusting 4 -0.0
2019-Dec-05 11:00 225 0 gusting 3 -0.0
2019-Dec-05 10:55 225 0 gusting 2 -0.0
2019-Dec-05 10:50 225 0 gusting 2 -0.0
2019-Dec-05 10:45 225 1 gusting 3 -0.0
2019-Dec-05 10:40 247 0 gusting 2 -0.0
2019-Dec-05 10:35 225 1 gusting 4 -0.0
2019-Dec-05 10:30 225 1 gusting 3 -0.0
2019-Dec-05 10:25 225 0 gusting 2 -0.0
2019-Dec-05 10:20 225 0 gusting 2 -0.0
2019-Dec-05 10:15 225 1 gusting 4 -0.0
2019-Dec-05 10:10 247 0 gusting 2 -0.0
2019-Dec-05 10:05 225 0 gusting 2 -0.0
2019-Dec-05 10:00 225 0 gusting 3 -0.0